Regional Weather Roundup
Issued by NWS Albany, NY

Home | Current Version | Previous Version | Graphics & Text | Print | Product List | Glossary Off
Versions: 1 2 3 4 5 6 7 8 9 10 11 12 13 14 15 16 17 18 19 20 21 22 23 24 25 26 27 28

000
ASUS41 KALY 301810
RWRALY

NEW YORK STATE HOURLY WEATHER ROUNDUP
NATIONAL WEATHER SERVICE ALBANY NY
200 PM EDT MON MAY 30 2016

NOTE: "FAIR" INDICATES FEW OR NO CLOUDS BELOW 12,000 FEET WITH NO
SIGNIFICANT WEATHER AND/OR NO OBSTRUCTIONS TO VISIBILITY.

NYZ032-033-038>043-046>054-057>066-NYZ062>081-082-084-301900-
EAST


CITY           SKY/WX    TMP DP  RH WIND       PRES   REMARKS
ALBANY         MOSUNNY   80  65  59 VRB7      29.90F
GLENS FALLS    MOSUNNY   83  66  56 S12G21    29.86F
POUGHKEEPSIE   MOSUNNY   81  66  60 VRB6      29.92F
NEWBURGH       MOSUNNY   77  68  73 W6        29.96F
MONTGOMERY     MOSUNNY   80  69  69 S8        29.93F
WHITE PLAINS   CLOUDY    79  68  69 SW3       29.95F
ISLIP          CLOUDY    71  67  87 SW6       29.97S
NEW YORK CITY  CLOUDY    81  72  74 S8        29.95S
CENTRAL PARK   CLOUDY    79  66  64 VRB3      29.98F
$$

NYZ005>009-017-018-044>046-055-056-301900-
CENTRAL


CITY           SKY/WX    TMP DP  RH WIND       PRES   REMARKS
FULTON         MOSUNNY   84  63  49 NW12      29.90F
SYRACUSE       PTSUNNY   82  61  48 SW16      29.89F
ROME           MOSUNNY   81  63  54 W13G22    29.90F
ELMIRA         MOSUNNY   84  61  45 W10       29.91F
BINGHAMTON     PTSUNNY   77  60  55 NW5       29.95F
MONTICELLO     MOSUNNY   79  64  61 N5        29.98F
$$

NYZ026>034-041>043-087-301900-
NORTH


CITY           SKY/WX    TMP DP  RH WIND       PRES   REMARKS
WATERTOWN      SUNNY     75  59  57 SW15G23   29.89F
FORT DRUM      NOT AVBL
MASSENA        MOSUNNY   82  59  45 SW14G29   29.81S
SARANAC LAKE   MOSUNNY   79  56  45 SW15G23   29.86F
PLATTSBURGH    MOSUNNY   76  65  68 S15       29.78F
$$

NYZ001>004-010>016-019>021-085-301900-
WEST


CITY           SKY/WX    TMP DP  RH WIND       PRES   REMARKS
NIAGARA FALLS  PTSUNNY   81  60  48 SW21      29.92F
BUFFALO        PTSUNNY   76  58  53 SW18      29.95F
DUNKIRK        CLOUDY    77  59  53 SW13      29.98F
WELLSVILLE     MOSUNNY   78  56  46 W13       30.02F
ROCHESTER      PTSUNNY   82  58  43 W15G26    29.92F
PENN YAN       MOSUNNY   81  56  42 W12G20    29.94F
$$

             KEY
       WCI = WIND CHILL INDEX
       VSB = VISIBILITY
       HX  = HEAT INDEX
$$




USA.gov is the U.S. government's official web portal to all federal, state and local government web resources and services.